Regional Weather Roundup
Issued by NWS Sioux Falls, SD

Home | Current Version | Previous Version | Graphics & Text | Print | Product List | Glossary Off
Versions: 1 2 3 4 5 6 7 8 9 10 11 12 13 14 15 16 17 18 19 20 21 22 23 24 25 26 27 28 29 30 31 32 33 34 35 36 37 38 39 40 41 42 43 44 45 46 47 48 49 50

000
ASUS43 KFSD 222110
RWRFSD

WEATHER ROUNDUP FOR SE SOUTH DAKOTA/SW MINNESOTA/NW IOWA
NATIONAL WEATHER SERVICE SIOUX FALLS SD
300 PM CST MON DEC 22 2014

NOTE: "FAIR" INDICATES FEW OR NO CLOUDS BELOW 12,000 FEET WITH NO
SIGNIFICANT WEATHER AND OR OBSTRUCTIONS TO VISIBILITY.


SDZ038>040-050-052>070-222200-
SOUTHEAST SOUTH DAKOTA

CITY           SKY/WX    TMP DP  RH WIND       PRES   REMARKS
CHAMBERLAIN    CLOUDY    34  31  90 NW20G25   29.43S WCI  23
HURON          CLOUDY    34  31  88 NW7       29.41R WCI  28
MADISON        CLOUDY    36  36 100 W5        29.40R
MITCHELL       CLOUDY    37  35  92 N5        29.42S
SIOUX FALLS    DRZL/FOG  40  39  97 CALM      29.40R VSB 3/4
WINNER         LGT RAIN  36  33  89 NW14      29.46R
YANKTON        CLOUDY    37  36  93 NW9       29.43S
$$

MNZ071-072-080-081-089-090-097-098-222200-
SOUTHWEST MINNESOTA

CITY           SKY/WX    TMP DP  RH WIND       PRES   REMARKS
FAIRMONT       CLOUDY    37  34  87 SE14      29.49R
JACKSON        CLOUDY    37  36  93 SE14      29.47R
LUVERNE        CLOUDY    41  37  87 SE9G16    29.41S
MARSHALL       CLOUDY    37  36  93 SE12      29.45R
MONTEVIDEO     DRIZZLE   37  37 100 S13       29.48R
PIPESTONE      CLOUDY    37  37 100 S8        29.40S FOG
REDWOOD FALLS  LGT RAIN  38  37  97 SE14      29.49R FOG
TRACY          LGT RAIN  39  38  97 SE14      29.45S
WINDOM         RAIN      37  37 100 SE10G18   29.46S
WORTHINGTON    CLOUDY    39 -11  11 SE12      29.44R
$$

IAZ001>003-012>014-020>022-031-032-NEZ013-014-SDZ071-222200-
NORTHWEST IOWA

CITY           SKY/WX    TMP DP  RH WIND       PRES   REMARKS
CHEROKEE       LGT RAIN  40  40 100 SE12      29.42S
DENISON        MIX PCPN  41  41 100 SE6       29.40S
ESTHERVILLE    MIX PCPN  37  36  96 SE16      29.46S FOG
LE MARS        MIX PCPN  41  41 100 SE5       29.41S
ORANGE CITY    LGT RAIN  41  39  93 SE5       29.40S
SHELDON        CLOUDY    39  39 100 SE10      29.41S FOG
SIOUX CITY     LGT RAIN  42  40  92 N3        29.41S
SPENCER        LGT RAIN  40  38  93 SE12      29.44S FOG
STORM LAKE     MIX PCPN  39  39 100 SE12      29.43S
$$

ABBREVIATIONS USED IN REMARKS
   TC - TEMPERATURE IN CELSIUS
  WCI - WIND CHILL INDEX
   HX - HEAT INDEX
  VSB - VISIBILITY



USA.gov is the U.S. government's official web portal to all federal, state and local government web resources and services.